Showing default

ICEYE-X37, 59102

Orbit data source: Space-Track

ICEYE-X37, 59102 is a payload satellite owned by ICEYE US (US) in SSO that was launched on Mon, 04 Mar 2024 UTC via an FALCON 9 launch vehicle from the Air Force Western Test Range (AFWTR). Payload-class satellites include a variety of spacecraft equipped with specific instruments for various scientific and technological missions. These include communications satellites like Starlink; space stations such as the ISS; scientific satellites like the Hubble; Earth observation satellites from companies like Planet Labs, Umbra, and HawkEye 360; GPS; miniature CubeSats for education and research; and military/defense satellites.

Loading next visibility...
Identifier
59102, 2024-043E
Orbit
SSO
Country
Flag of USUS
Related business
Manufacturer
ICEYE US
Mission
Operational Commercial Radar Imaging
Bus & Motor
ICEYE, Unknown motor
Mass
90 kg wet, 89 kg dry
Launch date (UTC)
2024-03-04 (2 years ago)
Launch vehicle
FALCON 9
Launch site
Air Force Western Test Range (AFWTR)
Object type
Payload
Rocket body
Debris
Shape & HBR
Box + 1 Pan, 1.6 m
Radar Cross Section
0.825 m², Medium (>0.1 m² and < 1m²)

Expand to show TLE details & history
Last TLE update: 11 hours ago

TLE from 11 hours ago
0 ICEYE-X37
1 59102U 24043E   26130.17421281  .00002810  00000-0  19779-3 0  9995
2 59102  97.8264 266.5997 0016578 135.2409 225.0158 15.05804545119360
Epoch: 2026-05-10T04:10Z
TLE epoch observation values (Epoch: 2026-05-10T04:10:51.986Z)
Latitude
-0.00005°
Longitude
-24.09798°
Altitude
560.225 km
Speed
7.577 km/s
True Right ascension
17h 46m 23s
True Declination
0° 00' 00"
Sunlit
Object was in full shadow at epoch
Visualization orbit readout
Latitude
Unknown
Longitude
Unknown
Altitude
Unknown
Speed
Unknown
Apparent Right ascension
Unknown
Apparent Declination
Unknown
Sunlit
N/A
Visualization observer readout
Local Sidereal Time
23:01:10
Azimuth
Unknown
Elevation
Unknown
Doppler factor
Unknown
Orbital elements
Apogee altitude
557.519 km
Perigee altitude
534.561 km
Semi-major axis
6,924.177 km
Eccentricity
0.00166
Inclination
97.8264°
RAAN
266.5997°
Arg. of periapsis
135.2409°
True anomaly
224.88163°
Mean anomaly
225.0158°
Eccentric anomaly
224.9487°
Mean motion
3.76696 °/min
Orbital period
95.57 mins
BSTAR
0.00019779
Loading maneuver chart data...
Computing Atmospheric mass density...
Loading historical data...
Loading historical data...
Loading historical data...
Loading historical data...
Loading historical data...
Loading historical data...
Loading historical data...

Documentation

Showing up to 5 results
|